Regional Weather Roundup
Issued by NWS Spokane, WA

Home | Current Version | Previous Version | Text Only | Print | Product List | Glossary On
Versions: 1 2 3 4 5 6 7 8 9 10 11 12 13 14 15 16 17 18 19 20 21 22 23 24 25 26 27 28 29 30 31 32 33 34 35 36 37 38 39 40 41 42 43 44 45 46 47 48 49 50
000
NZUS01 KOTX 221105
RWROTX
EASTERN WASHINGTON/NORTHERN IDAHO ROUNDUP
NATIONAL WEATHER SERVICE, SPOKANE WA
400 AM PDT FRI MAY 22 2015

Note: "fair" indicated few or no clouds below 12,000 feet with no
significant weather and/or obstructions to visibility.

...NORTHEAST WASHINGTON AND NORTHERN IDAHO PANHANDLE...

CITY           SKY/WX    TMP DP  RH WIND       PRES   REMARKS
SPOKANE INTL   MOCLDY    60  49  66 SE5       29.85R
SPOKANE DOWNTO PTCLDY    59  52  77 NE5       29.84S
COEUR D ALENE  PTCLDY    57  48  72 SE7       29.85R
DEER PARK      PTCLDY    53  48  83 CALM      29.85S
SANDPOINT      PTCLDY    48  43  81 CALM      29.87R
BONNERS FERRY  FAIR      46  37  71 CALM      29.88S

...SOUTHEAST WASHINGTON AND SOUTHERN IDAHO PANHANDLE...

CITY           SKY/WX    TMP DP  RH WIND       PRES   REMARKS
WALLA WALLA    CLOUDY    64  54  69 S6        29.83S
PULLMAN/MOSCOW CLEAR     53  50  89 CALM      29.88R
LEWISTON       PTCLDY    58  52  80 CALM      29.84R
LOWELL           N/A     50  48  93 CALM      29.91S

...COLUMBIA BASIN...

CITY           SKY/WX    TMP DP  RH WIND       PRES   REMARKS
EPHRATA        MOCLDY    66  45  46 NW10      29.79F
MOSES LAKE     MOCLDY    66  48  52 VRB7      29.80R
TRI CITIES     MOCLDY    62  56  80 E5        29.80R
HERMISTON      MOCLDY    60  54  80 SE5       29.81S
PENDLETON      CLOUDY    59  51  75 S6        29.83F

...EAST SLOPES CASCADES...

CITY           SKY/WX    TMP DP  RH WIND       PRES   REMARKS
THE DALLES     MOCLDY    64  53  67 MISG      29.83R
YAKIMA         PTCLDY    61  52  72 NW5       29.82S
ELLENSBURG     PTCLDY    63  51  65 NW12      29.84R
WENATCHEE      MOCLDY    62  49  62 W6        29.82R
OMAK           MOCLDY    64  43  46 NW8       29.80S

...SOUTHERN BRITISH COLUMBIA...

CITY           SKY/WX    TMP DP  RH WIND       PRES   REMARKS

...WESTERN MONTANA...

CITY           SKY/WX    TMP DP  RH WIND       PRES   REMARKS
MISSOULA       CLEAR     44  40  85 N3        29.95R

...NEIGHBORING CITIES...

CITY           SKY/WX    TMP DP  RH WIND       PRES   REMARKS
SEATTLE        CLOUDY    54  50  86 SW8       29.93R



USA.gov is the U.S. government's official web portal to all federal, state and local government web resources and services.